Location: Newark
(42.7133°N, 87.7910°W)
Time: 10:54:50
(UTC+00:00)

Vanguard 1 - Pass Details

Date: 26 September 2019
Orbit: 653 x 3830 km, 34.2° (Epoch: 22 October)

Event Time Altitude Azimuth Distance (km) Brightness Sun altitude
Rises 06:17:41 0° 232° (SW) 7,069 - -47.7°
Reaches altitude 10° 06:22:06 10° 228° (SW) 6,343 - -47.5°
Maximum altitude 06:43:23 57° 158° (SSE) 4,256 - -46.3°
Exits shadow 06:45:39 55° 141° (SE) 4,272 12.9 -46.1°
Drops below altitude 10° 07:03:45 10° 87° (E) 6,129 14.3 -44.7°
Sets 07:07:54 0° 84° (E) 6,833 14.7 -44.3°
